CAPE
13 3 2 0 24 16 7 11 14 17 12 3 0 0 1 3 5 0 1 0 0 0 0 8 12 23 14 0 0 1 0 0 0 0 0 3 0 0 0 0 0 0 0 0 0 0 0
44 6 0 0 0 22 11 8 16 15 9 18 12 2 0 0 5 0 1 0 0 0 1 0 0 15 5 0 0 0 0 0 0 0 0 1 2 0 8 0 0 2 0 0 0 0 0
6 49 2 2 0 2 9 10 14 20 9 12 24 11 0 0 3 0 0 12 10 0 0 0 0 0 0 0 0 0 6 0 0 0 0 3 21 30 21 0 0 0 0 0 0 0 0
10 7 38 6 2 0 16 9 18 31 22 9 23 14 0 0 0 3 0 6 8 13 0 9 0 7 0 0 0 0 0 0 0 0 0 0 0 0 3 8 0 0 11 2 0 0 0
3 3 12 23 4 0 11 17 17 28 32 19 14 7 0 0 0 2 0 7 0 5 13 13 0 1 0 0 0 0 0 0 0 0 0 0 0 0 0 5 4 6 0 12 4 0 12
13 6 16 3 57 17 2 17 26 30 30 19 25 14 5 0 0 3 1 0 0 1 4 23 5 10 0 0 0 0 0 0 0 0 0 0 0 0 0 19 4 7 2 1 1 0 11
4 3 10 4 41 70 29 27 37 23 14 14 19 14 6 0 0 0 0 0 0 0 12 0 0 0 0 0 0 0 0 0 0 0 0 0 0 1 0 0 0 0 0 10 2 0 16
21 7 8 15 14 10 74 24 0 23 25 21 21 20 5 1 0 0 3 1 0 0 0 1 0 0 0 0 1 0 0 0 5 1 0 0 0 0 0 0 0 1 1 0 0 0 33
28 23 25 22 17 8 2 57 14 18 46 30 34 14 10 0 1 3 0 1 0 0 0 3 1 0 0 0 1 2 0 0 1 2 0 0 0 0 0 0 3 3 0 0 0 0 4
39 20 35 25 34 6 7 9 38 16 36 32 29 11 5 0 0 0 1 0 2 3 7 0 0 3 5 1 1 2 3 0 10 1 0 0 0 0 1 1 0 0 0 1 3 5 0
34 21 32 31 38 14 19 15 2 57 43 51 45 12 0 0 0 0 0 0 11 7 0 0 1 0 12 7 1 0 0 3 3 1 2 0 0 0 0 0 4 0 0 0 12 4 6
28 29 28 44 67 36 63 2 7 2 48 67 61 8 0 0 0 0 0 0 1 0 0 0 0 0 2 12 8 3 0 1 5 4 1 0 0 2 0 0 0 0 5 3 30 12 4
34 26 40 60 76 45 39 1 11 0 43 83 31 16 0 0 0 0 0 0 1 0 0 0 0 0 0 3 3 10 4 3 3 0 0 0 0 0 0 0 0 24 8 8 16 4 1
31 26 72 64 33 76 72 0 10 5 52 117 13 3 0 0 0 0 0 2 0 0 0 0 0 1 1 0 5 4 0 2 9 0 0 0 0 0 0 0 0 0 3 3 1 0 0
28 39 80 31 16 23 30 8 0 0 31 129 23 4 0 0 0 0 0 0 0 0 0 0 1 1 1 3 2 4 2 0 0 0 0 0 0 0 0 0 15 0 5 0 8 12 9
21 20 36 25 38 34 1 1 0 4 31 129 9 2 2 0 0 0 0 0 0 0 0 0 0 0 0 0 2 1 0 0 0 0 0 0 0 0 1 7 7 0 0 1 5 8 1
21 11 21 35 34 27 14 17 18 25 2 71 1 2 2 1 1 2 0 0 0 0 0 1 1 1 0 0 0 0 0 0 0 0 0 0 0 0 1 0 0 1 5 11 9 0 3
21 38 20 39 24 50 32 34 23 9 0 11 0 4 3 1 3 3 2 0 4 0 4 2 5 2 0 0 0 0 0 0 0 0 0 0 0 0 0 0 0 9 5 1 0 0 1
47 41 16 33 26 39 22 10 15 3 2 0 9 2 3 1 1 1 1 1 3 3 6 5 1 0 9 0 0 0 0 0 0 0 0 2 0 0 0 3 4 3 12 34 0 0 0
35 43 17 14 24 31 19 17 0 2 24 2 0 2 8 8 4 1 2 2 4 2 1 16 3 1 1 1 0 0 0 0 0 0 2 3 0 0 0 0 0 2 2 1 3 0 0
31 34 15 14 25 28 19 17 7 13 1 0 0 2 0 1 1 3 2 1 1 0 0 5 2 0 0 0 1 0 0 2 0 0 0 0 0 0 0 0 0 0 0 1 0 0 0
31 24 17 9 29 22 32 13 6 4 1 0 0 2 2 0 1 1 1 4 4 2 3 3 0 0 0 0 0 0 0 0 0 0 0 0 0 3 1 0 9 0 0 2 1 0 0
34 18 24 11 14 26 40 22 3 1 2 0 0 0 1 2 0 1 0 0 0 1 1 2 2 0 0 0 4 1 1 1 0 0 0 0 2 1 0 0 0 0 0 0 0 0 0
30 13 23 10 19 24 27 17 4 2 9 2 0 0 0 1 1 0 1 4 5 2 1 0 2 0 0 16 2 6 14 0 6 0 0 0 0 0 0 0 0 0 0 0 0 0 0
29 20 18 11 22 29 31 23 6 8 4 0 0 1 0 2 0 0 0 0 8 8 4 1 7 0 0 8 15 20 2 20 11 1 0 2 0 3 0 0 0 0 0 0 0 0 0
24 20 12 16 20 14 12 34 5 8 5 1 0 0 0 0 0 0 0 2 0 0 2 4 0 0 0 9 12 3 1 0 0 2 0 5 1 9 0 0 0 0 0 0 0 0 0
33 25 11 14 7 11 16 34 17 3 1 2 0 0 0 0 0 0 0 2 0 0 2 3 0 0 0 2 0 0 0 0 0 0 1 2 8 0 0 0 0 0 0 0 0 0 0
27 22 11 13 5 19 15 26 24 7 1 2 0 0 1 0 0 0 0 0 0 0 2 1 0 0 0 1 1 0 5 0 0 0 1 1 0 0 0 1 0 0 0 0 0 0 0
36 16 16 13 8 9 17 27 22 0 4 2 0 0 0 0 0 0 0 0 0 0 4 1 0 0 0 1 2 2 0 0 0 0 0 0 0 0 0 0 0 0 0 0 0 0 0
CIN
-3 -3 -3 0 -0 -3 -8 -5 -9 -11 -8 -1 0 0 0 -0 0 0 -0 0 0 0 0 -0 -2 -2 -4 0 0 -10 0 0 0 0 0 -2 0 0 0 0 0 0 0 0 0 0 0
-0 -4 0 0 0 -1 -5 -7 -6 -14 -11 -2 0 0 0 0 -1 0 -0 0 0 0 0 0 0 -4 -3 0 0 0 0 0 0 0 0 -0 -0 0 -2 0 0 -2 0 0 0 0 0
-2 0 -2 -0 0 -0 -3 -6 -5 -13 -17 -18 0 -0 0 0 -1 0 0 0 0 0 0 0 0 0 -0 0 0 0 -12 0 0 0 0 -3 -13 -9 -6 0 0 0 0 0 0 0 0
0 -0 -0 -0 -0 0 -1 -5 -7 -6 -16 -18 -0 -0 0 0 0 -1 0 -1 -1 -0 0 -0 0 -4 0 0 0 0 0 0 0 0 0 0 0 0 -12 -15 0 0 -17 -4 0 0 0
-0 -0 -17 -6 -0 0 -1 -1 -7 -9 -9 -12 -8 -0 0 0 0 -1 0 -2 0 -2 -1 -2 -2 -5 0 0 0 0 0 0 0 0 0 0 0 0 -1 -13 -8 -13 0 -2 -0 0 -14
-1 -1 -3 -9 0 -0 0 -1 -3 -9 -11 -8 -8 -4 -1 0 0 -1 -1 0 0 -1 -6 -2 -4 -0 0 0 0 0 0 0 0 0 0 0 0 0 0 -0 -0 -1 -2 0 -1 0 -20
-1 -0 -0 -0 -7 -0 -0 -1 -4 -10 -10 -14 -14 -4 -3 0 0 0 0 0 0 0 -0 0 0 0 0 0 0 0 0 0 -0 0 0 0 0 -0 0 0 0 0 0 -5 -2 0 -12
-1 -1 -0 -0 0 -0 -1 -1 -1 -11 -11 -18 -16 -4 -7 -0 0 0 -4 -0 0 0 0 -18 0 0 0 0 -1 0 0 0 -0 0 0 0 -0 0 0 0 0 -0 0 0 0 0 -5
-1 -0 -0 -1 -0 -0 0 -0 -6 -18 -13 -20 -15 -11 -6 -5 -0 -1 0 -1 0 0 0 -0 -7 -4 0 -1 -3 -0 0 0 -0 -0 -0 0 0 0 0 0 -0 -0 0 0 0 0 -15
-1 -0 -1 -0 -0 -0 0 0 -0 -5 -17 -21 -12 -7 -4 0 -0 0 0 0 -22 -21 -2 0 -0 -2 -1 -0 0 -3 -2 0 -0 -0 0 0 0 0 -1 -0 0 0 0 -1 -0 -0 0
-1 -0 -3 -0 -0 -5 -0 0 -1 -0 -8 -14 -7 -6 -10 0 0 0 0 0 -27 -11 0 0 -0 -0 -0 -3 -1 0 0 -0 0 -0 -2 0 0 0 0 0 -3 0 0 0 -1 -2 -4
-0 -1 -2 -0 -0 -2 0 -0 -17 -8 -2 -10 -7 -22 -14 0 0 0 0 0 -13 0 0 0 -5 0 -1 0 -0 -2 -0 -0 -0 0 0 0 -2 -5 0 0 0 0 -2 -3 -2 -1 0
-0 -0 -0 -0 -1 -0 -0 -8 -22 -15 -4 -4 -9 -40 -9 0 0 0 -5 0 -0 0 0 0 0 0 0 0 -1 -0 -2 0 0 0 0 0 0 0 0 0 0 -4 -1 -1 -1 -1 -0
-0 -1 -1 -1 -3 -0 0 -0 -5 -6 -5 -2 -20 -52 0 0 0 0 0 -2 0 0 0 -2 -0 0 0 -1 0 -0 0 0 -2 0 0 0 0 0 0 0 0 0 -8 -3 -2 0 0
-1 -1 -0 -1 -1 -0 -4 -32 0 0 -6 -1 -55 0 -0 -0 0 0 0 0 0 0 0 0 0 0 0 -0 -0 -2 0 0 0 0 0 -2 0 0 0 0 -35 0 -1 0 -7 -30 -5
-0 -1 -1 -0 -0 -0 -6 0 0 0 -0 -3 -49 0 0 0 0 0 -0 0 0 0 0 0 0 0 0 -1 0 0 0 0 0 0 0 0 0 0 -1 -28 -25 -4 0 -1 -12 -7 -1
-1 -1 -1 -0 -0 -0 -0 0 -1 0 0 -0 -15 0 0 0 -0 0 0 0 0 0 0 -0 0 0 0 0 0 0 0 0 0 0 0 -1 0 0 0 -0 0 0 -8 -2 -6 -0 -5
-1 -0 -0 -0 -0 0 0 0 -0 -0 0 -7 0 -1 0 0 0 0 0 0 -1 0 -0 0 0 0 0 0 0 0 0 0 0 0 0 0 0 0 0 -2 0 -34 -2 -1 -1 0 -9
-1 -1 -1 -2 -0 0 0 -1 -0 0 -3 -1 -3 -16 0 -0 0 0 0 -1 -0 -1 0 0 0 -1 -24 0 0 0 0 0 0 0 0 0 0 0 0 0 -11 -1 -1 -7 0 0 0
-1 -1 -1 -0 -0 -0 -0 0 0 -0 -4 -3 -1 0 0 0 0 0 0 0 -0 0 0 0 -1 -12 -15 -8 0 0 0 0 0 0 -0 0 0 0 -0 0 0 -0 -1 -0 0 -0 0
-1 -1 -1 -1 -1 -0 -0 -0 -0 -0 -3 0 -0 -0 0 0 0 -1 0 0 0 0 0 0 0 0 0 0 -1 -1 0 -4 0 -9 0 0 0 0 0 0 -0 0 0 0 0 0 0
-1 -1 -1 -1 -0 -0 -0 -0 0 0 0 -0 -1 -2 -0 0 0 0 -0 0 0 0 0 0 -0 0 0 0 0 0 0 0 0 0 0 -0 0 0 0 0 0 0 0 -0 -5 -0 0
-0 -1 -1 -0 -0 -0 -0 -0 -0 0 0 -1 0 0 -3 -0 0 0 -0 0 0 -0 0 0 0 0 0 0 -11 -3 -7 -9 -2 0 0 0 0 0 0 0 0 -2 -31 -36 0 0 0
-0 -0 -0 -1 -0 -0 -1 -0 -0 0 -1 0 0 -3 -1 -0 -0 -0 -3 -6 -25 -18 -7 0 -1 0 0 -34 -21 -8 -11 0 -7 -3 -6 0 0 0 0 0 0 0 0 0 0 0 0
-0 -1 -0 -0 -0 -0 -1 -0 -0 -0 0 0 0 -19 0 0 0 -0 -0 0 -15 -11 -2 -0 -1 0 0 -12 -16 -1 -0 -3 -14 -13 0 -31 -1 -6 0 0 0 0 0 0 0 0 0
-0 -0 -0 -1 -1 -0 -1 -0 0 0 -0 0 0 0 0 0 0 0 0 -4 0 0 0 -0 0 0 -1 -5 -2 -1 -2 0 -0 -6 0 -11 -2 -8 0 0 0 0 0 0 0 0 0
-0 -0 -1 -0 -1 -1 -0 -0 -1 0 -0 0 0 0 0 0 0 -0 -0 -1 0 0 -0 -0 -2 0 0 -3 -0 0 0 0 0 -0 -1 -1 -1 -0 0 0 0 0 0 0 0 0 0
-0 -1 -0 -1 -0 -0 -1 -0 -0 0 -0 0 0 0 -1 0 0 0 0 0 0 -0 0 -0 -1 0 0 0 0 -0 -10 0 0 0 -4 0 -6 -0 -1 -2 0 0 0 0 0 0 0
-0 -0 -0 -0 -0 -0 -1 -0 -0 0 0 0 0 0 0 -0 -0 0 0 0 0 0 0 -0 0 0 0 -1 -1 -2 0 0 0 0 0 0 0 0 0 0 0 0 0 0 0 0 0
Wind_Speed
28 36 37 36 36 33 34 33 30 26 23 23 21 20 20 20 20 20 21 21 20 20 20 20 19 16 12 11 15 14 13 14 13 15 18 21 24 23 27 27 29 33 35 36 29 22 37
33 30 36 36 36 34 33 33 30 26 24 23 20 20 20 19 18 18 19 19 19 19 20 19 18 17 15 13 17 17 19 20 18 16 17 16 21 21 29 29 32 30 36 37 27 26 26
42 40 30 36 37 36 33 32 31 28 25 23 20 19 19 18 17 17 18 19 17 18 18 18 18 15 16 12 16 22 14 17 20 22 21 17 18 23 23 28 27 31 36 38 35 30 29
45 44 43 33 35 36 35 32 31 27 26 23 21 19 18 17 17 16 17 18 18 17 16 16 17 17 20 16 11 20 23 19 20 21 22 22 23 26 25 26 29 30 35 35 33 35 35
47 46 45 42 37 34 35 33 31 27 25 24 22 20 19 17 16 16 15 15 17 17 15 14 18 18 25 17 13 15 16 21 21 18 20 23 24 25 26 29 33 30 38 37 38 34 34
48 48 47 46 43 37 34 34 32 28 27 24 21 20 18 17 16 15 15 14 16 17 16 14 18 22 21 19 16 13 15 16 19 21 21 20 22 28 28 28 36 34 36 40 40 33 36
49 48 48 48 45 41 37 35 32 28 27 26 23 19 18 16 16 13 12 16 23 23 19 20 18 20 23 17 16 14 11 15 17 22 26 23 27 30 30 30 32 35 40 39 40 37 34
50 50 48 48 45 44 40 35 32 29 26 24 24 19 16 14 14 11 12 18 20 20 31 21 19 19 16 16 22 18 11 14 17 23 22 28 35 26 25 27 31 34 37 42 42 41 38
52 50 49 49 47 44 43 36 33 29 25 23 19 17 14 13 12 13 15 16 13 19 31 29 19 21 18 18 22 16 9 14 18 22 22 28 24 22 24 28 30 32 35 41 45 41 41
53 51 50 48 46 45 39 34 33 32 26 23 18 14 12 10 16 15 17 12 13 18 32 30 23 19 14 14 23 12 10 13 21 23 22 29 27 29 25 30 28 37 35 40 43 40 46
52 52 50 48 46 44 40 37 32 31 29 22 16 12 10 9 15 14 14 6 8 17 37 20 18 16 18 13 17 16 9 14 21 20 19 26 23 26 31 32 28 41 35 40 40 45 46
50 52 50 46 46 43 42 36 34 33 36 23 17 12 9 11 14 11 4 5 11 22 33 22 20 20 20 17 20 20 16 14 18 23 23 26 26 25 30 35 34 32 33 38 37 41 52
49 50 48 46 45 43 39 38 38 36 35 23 18 14 12 11 13 4 1 8 20 25 22 22 22 19 18 21 20 19 21 17 19 20 23 28 34 29 28 31 30 33 37 39 41 42 52
46 49 46 42 43 37 36 34 35 34 34 17 17 15 15 13 5 5 7 14 25 24 23 21 21 19 23 22 21 18 19 12 10 16 20 23 30 26 23 31 30 35 41 42 40 51 48
42 47 43 42 41 41 35 37 34 34 36 18 15 17 17 10 7 7 8 22 23 23 22 21 20 21 22 19 16 13 6 4 11 9 12 15 30 26 11 25 30 38 49 53 39 40 41
41 42 39 38 40 39 27 32 31 34 31 22 20 18 20 10 8 9 17 23 23 20 17 18 16 14 19 17 13 8 5 20 27 28 28 24 26 26 33 32 42 44 40 53 46 40 45
44 37 35 37 39 30 28 29 30 28 32 36 18 20 18 12 10 15 23 21 22 17 13 13 13 15 12 14 9 18 21 23 24 23 24 23 25 24 14 36 42 45 46 49 45 40 25
39 35 36 37 36 31 25 24 28 32 33 33 19 22 15 15 20 24 25 21 20 16 12 2 8 5 6 11 19 21 24 23 18 23 27 28 22 23 30 33 41 43 45 51 48 43 39
38 36 36 36 35 32 26 27 27 27 36 23 16 17 15 17 30 27 24 23 19 12 7 8 4 9 13 17 16 23 24 21 24 24 23 25 21 21 24 30 34 47 47 44 40 37 32
37 36 35 35 32 31 26 26 26 25 25 23 20 22 22 26 23 24 24 24 16 12 12 3 11 23 21 22 24 19 24 19 25 25 24 22 22 24 25 26 34 40 46 43 37 26 15
38 36 34 31 30 28 25 27 26 23 35 21 22 24 22 28 32 24 14 20 18 22 11 6 21 28 24 23 25 24 21 21 25 27 23 18 16 21 28 32 35 39 38 41 37 29 4
37 34 31 30 29 29 28 25 24 26 23 22 24 24 25 24 24 24 26 20 29 23 18 16 25 27 28 27 26 20 23 24 22 27 23 17 11 9 10 18 23 35 37 35 24 12 5
34 33 30 30 28 29 27 23 22 21 23 23 21 23 23 24 21 22 27 32 29 23 22 19 27 28 30 29 28 26 23 25 22 23 23 19 12 7 4 12 20 20 32 26 20 16 13
35 34 31 27 28 28 28 25 23 22 21 27 24 23 25 23 23 27 27 27 29 23 21 9 22 34 27 22 22 20 19 22 26 15 22 21 19 13 13 11 16 16 15 28 24 23 20
34 33 31 30 30 29 27 24 24 20 21 22 24 25 23 25 28 30 27 26 24 26 25 22 18 29 26 22 18 23 22 21 21 21 21 24 20 17 15 17 17 15 14 15 20 23 19
34 33 30 29 29 29 28 25 24 23 22 23 24 20 23 23 28 21 24 23 24 26 28 26 10 19 21 22 18 22 22 23 23 21 20 16 18 16 17 17 16 16 16 16 14 18 17
33 32 31 30 29 29 27 24 23 23 23 23 22 22 20 24 25 21 24 25 22 23 24 20 7 17 21 21 21 20 22 17 17 17 14 8 11 15 20 18 20 16 16 13 14 16 19
34 32 31 30 28 28 27 25 25 23 20 21 24 24 22 24 25 21 18 22 23 23 22 15 9 10 18 23 25 21 19 22 19 15 13 10 11 15 18 21 21 12 14 13 11 11 9
34 32 30 30 30 29 28 26 25 24 23 22 24 24 23 23 22 21 22 23 24 22 23 6 22 11 13 24 26 22 20 16 15 19 19 19 19 12 10 18 15 11 13 10 9 8 8
Wind_Direction
325 306 303 302 298 299 293 293 296 302 307 309 311 314 315 316 320 322 322 325 326 330 329 325 324 329 333 313 301 323 330 329 325 313 289 279 281 286 282 279 277 270 269 270 272 266 266
319 319 305 302 299 299 297 293 295 299 303 306 308 311 313 313 317 324 326 329 329 330 331 330 325 327 323 305 315 295 300 303 307 308 304 285 284 285 284 279 274 278 271 269 266 269 271
316 308 314 303 299 297 298 294 294 294 297 302 303 307 309 311 313 320 325 329 331 333 334 335 333 329 318 304 322 313 292 297 298 295 293 292 286 283 289 282 283 280 274 271 267 264 267
313 312 305 307 302 295 295 293 292 293 293 295 298 302 306 309 309 313 321 326 329 333 334 335 336 328 317 330 301 303 299 297 297 292 290 291 293 286 282 285 284 279 274 268 270 266 265
313 312 310 306 299 299 293 290 290 290 290 291 292 295 300 305 307 310 317 325 329 330 333 336 328 325 317 337 314 301 295 293 296 293 290 290 286 282 283 274 275 276 270 272 271 266 264
315 310 308 304 298 295 293 288 287 286 287 287 288 290 293 299 306 308 315 325 330 330 325 331 323 319 319 322 328 309 298 291 290 293 294 289 283 272 271 268 267 269 273 269 269 268 262
321 315 307 305 304 293 289 285 285 283 282 281 283 284 289 291 299 304 313 319 307 309 306 305 316 316 322 331 330 322 312 290 286 287 281 284 274 268 268 267 271 271 271 272 267 266 264
323 318 309 304 301 302 288 283 280 279 279 279 278 277 284 286 294 298 305 305 307 319 304 300 298 302 305 330 315 309 316 286 275 275 279 280 272 276 274 270 268 267 269 266 268 264 264
326 320 315 305 300 298 301 281 277 274 273 275 275 273 276 283 292 292 290 303 326 329 305 307 304 303 288 299 296 303 286 279 280 277 274 270 294 270 269 268 266 263 262 264 262 264 266
328 324 318 313 299 296 293 293 279 272 266 268 268 267 269 278 285 286 290 297 324 334 305 310 321 334 325 308 307 279 252 280 285 275 274 280 276 274 275 263 261 264 263 263 261 260 255
333 328 321 314 306 291 284 292 284 277 263 260 257 254 252 251 290 278 303 321 335 329 298 323 333 349 344 321 334 325 253 263 275 275 271 280 284 268 261 260 263 261 263 260 260 253 254
334 329 322 313 308 293 276 281 271 271 257 253 245 240 235 254 290 290 334 11 324 309 300 316 330 330 330 326 315 320 320 269 296 278 272 272 282 280 269 265 260 262 263 259 257 252 247
337 330 323 314 307 295 277 271 269 274 260 246 237 229 231 252 268 255 39 313 301 298 320 319 324 330 329 325 319 317 309 281 280 280 272 280 273 275 273 267 261 253 245 242 241 240 234
340 329 319 313 306 297 280 271 271 274 252 230 220 218 235 257 195 205 275 294 289 306 308 327 330 331 328 330 323 319 319 287 240 286 292 285 282 268 264 254 252 242 233 230 233 223 225
344 323 315 315 306 298 281 252 257 258 243 227 210 224 233 237 196 219 265 284 296 306 319 324 332 331 336 338 335 340 320 286 294 245 287 290 253 264 234 249 240 236 228 224 236 238 234
341 312 311 312 310 297 273 252 255 253 240 227 226 224 231 208 202 228 273 285 296 309 328 334 335 349 349 355 356 12 47 186 199 192 188 201 219 224 231 234 222 232 226 211 218 223 224
322 303 306 312 314 299 275 250 251 248 241 190 213 230 228 200 230 250 268 287 300 311 331 340 349 352 6 10 43 187 197 191 182 193 177 181 207 211 249 199 182 196 201 207 211 215 222
310 305 305 310 311 308 286 265 264 249 240 221 224 233 208 194 241 255 267 288 307 318 332 342 0 31 90 107 182 186 185 192 183 188 182 191 202 211 209 213 209 206 199 186 197 202 224
309 305 304 306 310 307 294 272 267 267 233 216 209 233 217 216 242 253 273 287 304 321 348 12 53 150 135 143 180 192 197 200 188 174 162 184 196 189 180 197 200 187 189 194 189 189 237
306 302 302 302 305 308 302 282 271 268 219 215 227 226 232 236 256 258 269 280 299 326 199 168 172 218 204 214 191 195 196 205 171 159 167 188 200 196 193 201 193 186 183 189 191 215 214
307 303 299 296 300 304 305 292 265 259 216 220 230 234 234 232 241 260 277 287 285 227 164 77 209 199 197 202 197 199 195 202 175 155 177 210 206 219 219 214 207 205 188 188 193 210 195
307 303 294 292 296 304 303 293 274 272 241 228 230 237 233 242 248 255 258 275 238 213 191 179 208 206 201 202 203 199 192 198 208 173 176 175 225 237 230 207 202 195 188 201 227 241 239
304 302 294 293 293 298 297 298 276 267 238 232 243 237 234 243 253 256 255 239 223 202 213 192 225 230 217 214 226 228 235 204 193 180 174 189 199 234 245 216 217 228 205 228 246 251 254
304 302 296 285 290 296 298 291 278 263 280 237 231 229 237 247 248 248 255 219 219 200 203 165 208 226 235 258 259 256 255 239 221 257 195 197 211 227 231 245 236 247 260 217 235 246 260
302 299 294 292 290 294 293 292 274 267 281 243 233 235 243 247 248 249 257 263 266 247 218 209 203 240 247 259 254 244 242 242 237 248 246 203 233 241 243 245 250 266 285 271 257 257 269
300 298 292 287 289 293 293 286 273 273 275 244 235 244 246 250 247 264 266 271 265 269 258 275 291 251 243 248 254 250 243 235 240 254 256 270 258 267 263 262 269 271 296 288 293 278 279
298 295 291 285 289 291 288 278 274 275 275 248 241 244 253 251 251 260 257 261 275 292 266 287 251 249 245 244 247 252 251 259 266 270 278 292 290 272 263 278 279 290 305 303 285 287 278
298 294 288 284 282 288 288 282 273 273 269 255 243 241 249 251 254 263 277 268 268 287 269 301 252 242 241 239 243 251 261 256 267 278 288 283 288 282 275 269 269 304 292 295 309 313 336
298 293 285 282 279 283 283 279 274 267 267 263 241 242 245 249 258 267 273 275 260 281 255 345 232 144 253 237 241 248 256 265 268 267 267 268 264 285 296 267 293 310 290 307 319 0 353